Location: Newark
(54.8972°N, 99.8189°W)
Time: 04:50:19
(UTC+00:00)

Transit 2A - Pass Details

Date: 19 November 2019
Orbit: 602 x 957 km, 66.7° (Epoch: 14 December)

Event Time Altitude Azimuth Distance (km) Brightness Sun altitude
Rises 00:22:32 0° 309° (NW) 2,929 9.6 -15.4°
Reaches altitude 10° 00:25:19 10° 326° (NW) 1,987 8.4 -15.8°
Maximum altitude 00:28:44 21° 16° (NNE) 1,374 7.1 -16.3°
Enters shadow 00:29:37 20° 33° (NNE) 1,420 7.0 -16.4°
